Terminal Aerodrome Forecast
Issued by NWS Houston/Galveston, TX

Home | Current Version | Previous Version | Text Only | Print | Product List | Glossary On
Versions: 1 2 3 4 5 6 7 8 9 10 11 12 13 14 15 16 17 18 19 20 21 22 23 24
000
FTUS44 KHGX 302333
TAFCLL
TAF
KCLL 302333Z 0100/0124 11006KT P6SM SKC
     FM010200 12006KT P6SM FEW020 SCT040
     FM010900 VRB03KT 6SM BR FEW007 BKN015
     FM011400 17007KT P6SM SCT025 SCT250=

USA.gov is the U.S. government's official web portal to all federal, state and local government web resources and services.